Погода в Ушмане

Россия / Хабаровский край     50°24′41″N   132°16′28″E
темп.,
°C
ветер,
м/с
пор.,
м/с
влажн.,
%
обл.,
%
осадки,
мм/ч
давл.,
гПа
погр.,
м
6 марта, сб
сб601:00−29зсз129876 0.0 103121
04:00−30зсз129760 0.0 103221
07:00−31зсз229739 0.0 103321
10:00−25сз248619 0.0 1033288
13:00−21зсз36750 0.0 1031615
16:00−18зсз368118 0.0 1029686
19:00−23з129680 0.0 103020
22:00−25з129543 0.0 103120
7 марта, вс
вс701:00−26з11930 0.0 103020
04:00−27сз11950 0.0 102919
07:00−25ссв019488 0.0 102820
10:00−21ссв119094 0.0 1026142
13:00−16сз1183100 0.0 1024393
16:00−15ссз2285100 0.1 1022441
19:00−19ссз1297100 0.0 102321
22:00−21ссз119696 0.0 102520
8 марта, пн
пн801:00−22сз119934 0.0 102620
04:00−22сз119917 0.0 102820
07:00−23сз11993 0.0 102820
10:00−16юз11882 0.0 1027165
13:00−12юз248127 0.0 1024492
16:00−10ююз368546 0.0 1020575
19:00−11ю379599 0.0 1019282
22:00−10ю4129399 0.1 1018435
9 марта, вт
вт901:00−10ю41392100 0.0 1014523
04:00−10ю41293100 0.5 1011459
07:00−10ю41195100 0.8 1008456
10:00−9ююз3792100 1.8 1007436
13:00−5зюз2484100 0.3 1006606
16:00−5сз5786100 0.5 10071006
19:00−11сз5148886 0.1 1011692
22:00−15сз259478 0.1 1014119
10 марта, ср
ср1001:00−15сз369653 0.0 1016191
04:00−17сз129942 0.0 102022
07:00−18ссз229959 0.0 102323
10:00−13ссз229155 0.0 1025158
13:00−6сз11767 0.0 1023495
16:00−6зюз23756 0.0 1021818
19:00−9ююз239493 0.0 102251
22:00−11ю229697 0.0 102367